Showing default

RADUGA 21, 18631

Orbit data source: Space-Track

RADUGA 21, 18631 is a payload satellite owned by UNKS (CIS) in GEO that was launched on Thu, 10 Dec 1987 UTC via a PROTON-K/DM-2 launch vehicle from the Tyuratam Missile And Space Complex (TTMTR). Payload-class satellites include a variety of spacecraft equipped with specific instruments for various scientific and technological missions. These include communications satellites like Starlink; space stations such as the ISS; scientific satellites like the Hubble; Earth observation satellites from companies like Planet Labs, Umbra, and HawkEye 360; GPS; miniature CubeSats for education and research; and military/defense satellites.

Loading next visibility...
Identifier
18631, 1987-100A
Orbit
GEO
Country
Flag of CISCIS
Related business
Manufacturer
NPO PM
Mission
Non-operational Defense Communications
Bus & Motor
RADUGA, Unknown motor
Mass
1,965 kg wet, ~1,800 kg dry
Launch date (UTC)
1987-12-10 (38 years ago)
Launch vehicle
PROTON-K/DM-2
Launch site
Tyuratam Missile And Space Complex (TTMTR)
Object type
Payload
Rocket body
Debris
Shape & HBR
Cyl + 2 Pan, 4.8 m
Radar Cross Section
16.975 m², Large (>1 m²)

Expand to show TLE details & history
Last TLE update: 1 day ago

TLE from 1 day ago
0 RADUGA 21
1 18631U 87100A   25305.22330269  .00000117  00000-0  00000-0 0  9996
2 18631  11.6346 326.8653 0002222 255.4765 108.5050  1.00311519138807
Epoch: 2025-11-01T05:21Z
TLE epoch observation values (Epoch: 2025-11-01T05:21:33.352Z)
Latitude
0.81567°
Longitude
-150.38599°
Altitude
35,777.887 km
Speed
3.075 km/s
True Right ascension
22h 03m 02s
True Declination
0° 48' 53"
Sunlit
Object was in daylight at epoch
Visualization orbit readout
Latitude
Unknown
Longitude
Unknown
Altitude
Unknown
Speed
Unknown
Apparent Right ascension
Unknown
Apparent Declination
Unknown
Sunlit
N/A
Visualization observer readout
Local Sidereal Time
01:59:19
Azimuth
Unknown
Elevation
Unknown
Doppler factor
Unknown
Orbital elements
Apogee altitude
35,785.833 km
Perigee altitude
35,767.1 km
Semi-major axis
42,154.604 km
Eccentricity
0.00022
Inclination
11.6346°
RAAN
326.8653°
Arg. of periapsis
255.4765°
True anomaly
108.52914°
Mean anomaly
108.505°
Eccentric anomaly
108.51707°
Mean motion
0.25077 °/min
Orbital period
1,435.58 mins
BSTAR
0
Loading maneuver chart data...
Computing Atmospheric mass density...
Loading historical data...
Loading historical data...
Loading historical data...
Loading historical data...
Loading historical data...
Loading historical data...
Loading historical data...

Documentation

Showing up to 5 results
|